GW1539 Weather Reports


time (UTC)temp
C
wind
direction
speed
KPH
gust
KPH
rain 1hr
cm
rain 24hr
cm
rain mn
cm
humidity
%
barometer
mb
20260504204622 9 233 0.0 0.0 0.00 0.00 0.00 85 1016.4
20260504201621 10 233 0.0 0.0 0.00 0.00 0.00 82 1016.3
20260504194618 11 233 0.0 0.0 0.00 0.00 0.00 79 1016.4
20260504191625 13 233 0.0 1.6 0.00 0.00 0.00 75 1016.2
20260504184621 14 240 0.0 11.3 0.00 0.00 0.00 72 1016.1
20260504181621 15 234 0.0 4.8 0.00 0.00 0.00 69 1016.0
20260504174617 15 188 0.0 1.6 0.00 0.00 0.00 63 1016.0
20260504171619 16 263 3.2 6.4 0.00 0.00 0.00 57 1015.8
20260504130120 18 246 4.8 14.5 0.00 0.00 0.00 52 1016.5
20260504081620 15 244 0.0 0.0 0.00 0.00 0.00 58 1017.5
20260504044619 4 335 0.0 0.0 0.00 0.00 0.00 91 1016.8
20260504041620 4 335 0.0 0.0 0.00 0.00 0.00 89 1016.6
20260504040124 5 335 0.0 0.0 0.00 0.00 0.00 89 1016.8
20260504033115 5 335 0.0 0.0 0.00 0.00 0.00 88 1016.8
20260504031630 6 335 0.0 0.0 0.00 0.00 0.00 89 1016.7
20260504024622 6 335 0.0 0.0 0.00 0.00 0.00 89 1017.0
20260504021621 7 335 0.0 0.0 0.00 0.00 0.00 89 1017.1
20260504014621 7 335 0.0 0.0 0.00 0.00 0.00 89 1017.1
20260504011620 7 335 0.0 0.0 0.00 0.00 0.00 89 1017.4
20260504004618 7 335 0.0 0.0 0.00 0.00 0.00 88 1017.6
20260504001616 7 335 0.0 0.0 0.00 0.00 0.00 88 1017.8
20260503234621 7 335 0.0 0.0 0.00 0.00 0.00 87 1017.8
20260503231617 7 335 0.0 0.0 0.00 0.00 0.00 86 1018.1
20260503224619 7 335 0.0 0.0 0.00 0.00 0.00 86 1018.3
20260503223113 7 335 0.0 0.0 0.00 0.00 0.00 85 1018.4
20260503220129 7 335 0.0 0.0 0.00 0.00 0.00 85 1018.3
20260503214617 7 335 0.0 0.0 0.00 0.00 0.00 83 1018.3
20260503211610 8 335 0.0 0.0 0.00 0.00 0.00 81 1018.2